sat.trackr.live / text

‹ back to catalog

THAICOM 4

NORAD 28786 · 2005-028A

PAYLOAD ACTIVE UNKNOWN

§ Identity

Operator
Country
THAI
Launch date
2005-08-11
Launch site
FRGUI
Launch vehicle
Mass (kg)
RCS (m²)
15.87

Purposes: comms

External: N2YO · Heavens-Above · Gunter

§ Orbital elements

Epoch: 2026-05-25T00:53:21.028416Z

Period
1,436.10 min
Inclination
0.1872°
Eccentricity
0.0001985
Mean motion
1.00271723 rev/d
Perigee alt
35,778.2 km
Apogee alt
35,795.0 km
Semi-major
42,164.7 km
B*
0.0000e+0
RAAN
86.1403°
Arg perigee
332.1213°
Mean anomaly
317.2041°
Rev number
5,201

§ Raw data

THAICOM 41 28786U 05028A   26145.03704894 -.00000365  00000+0  00000+0 0  99922 28786   0.1872  86.1403 0001985 332.1213 317.2041  1.00271723 52010

JSON: /api/v1/satellites/28786 · /tle

For live sub-satellite position, see the globe view (requires WebGL).

§ Visibility from observer

Set your observer location to see the next 7 days of passes ≥ 10°. The values pass through the URL so the page stays shareable.

No JS? Fill the form by hand. The geolocation button needs JavaScript.